{"data":{"norad_id":44714,"epoch":"2026-05-25T01:51:39.970944Z","epoch_age_seconds":61538,"freshness":"FRESH","line1":"1 44714U 19074B   26145.07754596  .00040845  00000+0  79909-3 0  9999","line2":"2 44714  53.1534 179.1223 0002873  40.4824 319.6397 15.47043053360638","mean_motion":15.47043053,"eccentricity":0.0002873,"inclination_deg":53.1534,"raan_deg":179.1223,"arg_perigee_deg":40.4824,"mean_anomaly_deg":319.6397,"bstar":0.00079909,"rev_number":36063,"period_min":93.080796763062,"perigee_km":423.42692185503,"apogee_km":427.33622362693,"semimajor_km":6803.518572741,"source":"CELESTRAK","updated_at":"2026-05-25T13:38:16.371511Z"}}